Location: Six Mile Lake
(44.9000°N, 79.7170°W)
Time: 22:27:52
(UTC-04:00)

AIST 2D - Visible Passes

Search period start: 25 June 2022 00:00
Search period end: 05 July 2022 00:00
Orbit: 433 x 449 km, 97.1° (Epoch: 25 June)

Date Brightness Start Highest point End Pass type
(mag) Time Alt. Az. Time Alt. Az. Time Alt. Az.
25 Jun ? 22:07:22 10° NE 22:09:40 17° E 22:11:21 13° SE visible
25 Jun ? 23:39:29 10° NNW 23:42:18 26° WNW 23:44:49 12° SW visible
26 Jun ? 23:01:27 10° N 23:04:48 85° W 23:06:49 22° SSW visible
27 Jun ? 22:24:08 10° NE 22:27:03 28° E 22:28:48 18° SE visible
27 Jun ? 23:57:16 10° NNW 23:59:28 17° WNW 00:01:39 10° WSW visible
28 Jun ? 23:18:48 10° N 23:22:00 47° WNW 23:24:14 18° SW visible
29 Jun ? 22:41:05 10° NNE 22:44:20 49° E 22:46:12 22° SSE visible
30 Jun ? 00:15:41 10° NW 00:16:31 11° WNW 00:17:20 10° WNW visible
30 Jun ? 22:04:17 10° NE 22:06:27 16° E 22:08:08 12° SE visible
30 Jun ? 23:36:12 10° N 23:39:07 28° WNW 23:41:35 13° SW visible
01 Jul ? 22:58:10 10° NNE 23:01:30 88° ESE 23:03:30 23° SSW visible
02 Jul ? 22:20:50 10° NE 22:23:41 26° E 22:25:24 17° SE visible
02 Jul ? 23:53:47 10° NNW 23:56:07 18° WNW 23:58:28 10° WSW visible
03 Jul ? 23:15:19 10° N 23:18:34 52° WNW 23:20:44 19° SW visible
04 Jul ? 22:37:35 10° NNE 22:40:48 44° E 22:42:36 22° SSE visible
